Weather History for Ogallala, NE

Change the Weather History Date:

Friday, June 28, 2013

  Actual Average Record
Temperature  
Mean Temperature 76 °F -  
Max Temperature 91 °F 89 °F 120 °F (1999)
Min Temperature 61 °F 59 °F 12 °F (1999)
Cooling Degree Days 10    
Growing Degree Days 26 (Base 50)    
Moisture  
Dew Point 55 °F    
Average Humidity 50    
Maximum Humidity 90    
Minimum Humidity 23    
Precipitation  
Precipitation 0.00 in - - ()
Sea Level Pressure  
Sea Level Pressure 30.18 in    
Wind  
Wind Speed 6 mph (NNE)    
Max Wind Speed 17 mph    
Max Gust Speed 22 mph    
Visibility 10 miles    
Events      
Averages and records for this station are not official NWS values.
T = Trace of Precipitation, MM = Missing Value Source: NWS Daily Summary

Daily Weather History Graph

Daily Weather History Graph

Search for Another Location

Airport:

Trip Planner

Search our weather history database for the weather conditions in past years. The results will help you decide how hot, cold, wet, or windy it might be!

Date:

Astronomy

Jun. 28, 2013 Rise Set
Actual Time 5:17 AM MDT 8:23 PM MDT
Civil Twilight 4:43 AM MDT 8:57 PM MDT
Nautical Twilight 4:00 AM MDT 9:40 PM MDT
Astronomical Twilight 3:09 AM MDT 10:31 PM MDT
Moon 11:49 PM MDT (6/28) 11:30 AM MDT (6/28)
Length of Visible Light 16h 13m
Length of Day
15h 06m
Waning Gibbous, 65% of the Moon is Illuminated
Jun 28
Waning Gibbous
Jun 29
Last Quarter
Jul 8
New
Jul 15
First Quarter
Jul 22
Full

Hourly Weather History & Observations

Time (MDT) Temp. Heat Index Dew Point Humidity Pressure Visibility Wind Dir Wind Speed Gust Speed Precip Events Conditions
12:35 AM 68.9 °F - 60.4 °F 74% 30.20 in 10.0 mi West 3.5 mph - N/A   Clear
12:55 AM 70.0 °F - 60.8 °F 73% 30.20 in 10.0 mi Calm Calm - N/A   Clear
1:15 AM 69.4 °F - 61.3 °F 75% 30.20 in 10.0 mi NW 3.5 mph - N/A   Clear
1:35 AM 66.7 °F - 61.0 °F 82% 30.20 in 10.0 mi WNW 4.6 mph - N/A   Clear
1:55 AM 66.2 °F - 61.0 °F 83% 30.20 in 10.0 mi NW 3.5 mph - N/A   Clear
2:15 AM 66.2 °F - 61.3 °F 84% 30.20 in 10.0 mi West 4.6 mph - N/A   Clear
2:35 AM 63.5 °F - 60.4 °F 90% 30.20 in 10.0 mi West 3.5 mph - N/A   Clear
2:55 AM 64.4 °F - 60.8 °F 88% 30.20 in 10.0 mi West 4.6 mph - N/A   Clear
3:15 AM 64.9 °F - 61.2 °F 88% 30.20 in 10.0 mi Calm Calm - N/A   Clear
3:35 AM 65.3 °F - 61.5 °F 88% 30.20 in 10.0 mi Calm Calm - N/A   Clear
3:55 AM 63.9 °F - 60.8 °F 90% 30.20 in 10.0 mi West 3.5 mph - N/A   Clear
4:15 AM 66.2 °F - 60.4 °F 82% 30.20 in 10.0 mi WNW 3.5 mph - N/A   Clear
4:35 AM 66.0 °F - 59.9 °F 81% 30.20 in 10.0 mi NW 3.5 mph - N/A   Clear
4:55 AM 65.3 °F - 59.4 °F 81% 30.20 in 10.0 mi WSW 3.5 mph - N/A   Clear
5:15 AM 63.0 °F - 59.0 °F 87% 30.21 in 10.0 mi WSW 4.6 mph - N/A   Clear
5:35 AM 61.9 °F - 59.0 °F 90% 30.21 in 10.0 mi WSW 5.8 mph - N/A   Clear
5:55 AM 63.0 °F - 59.4 °F 88% 30.21 in 10.0 mi West 4.6 mph - N/A   Clear
6:55 AM 67.5 °F - 61.5 °F 81% 30.22 in 10.0 mi Calm Calm - N/A   Clear
7:15 AM 69.6 °F - 62.1 °F 77% 30.22 in 10.0 mi Calm Calm - N/A   Clear
7:35 AM 71.1 °F - 62.4 °F 74% 30.22 in 10.0 mi Calm Calm - N/A   Clear
7:55 AM 74.7 °F - 59.7 °F 60% 30.23 in 10.0 mi NE 8.1 mph - N/A   Clear
8:15 AM 75.6 °F - 59.4 °F 57% 30.23 in 10.0 mi NNE 9.2 mph - N/A   Clear
8:35 AM 76.5 °F - 59.4 °F 55% 30.23 in 10.0 mi NNE 9.2 mph - N/A   Clear
8:55 AM 78.1 °F - 59.0 °F 52% 30.22 in 10.0 mi NNE 6.9 mph - N/A   Clear
9:15 AM 80.1 °F 80.7 °F 58.8 °F 48% 30.22 in 10.0 mi NE 8.1 mph - N/A   Clear
9:35 AM 81.0 °F 81.0 °F 57.2 °F 44% 30.22 in 10.0 mi NNE 9.2 mph - N/A   Clear
9:55 AM 82.6 °F 81.8 °F 55.2 °F 39% 30.21 in 10.0 mi NNE 12.7 mph - N/A   Clear
10:15 AM 83.5 °F 82.6 °F 55.9 °F 39% 30.21 in 10.0 mi NNE 10.4 mph - N/A   Clear
10:35 AM 84.6 °F 83.1 °F 54.3 °F 35% 30.20 in 10.0 mi North 10.4 mph - N/A   Clear
10:55 AM 86.2 °F 84.2 °F 53.1 °F 32% 30.20 in 10.0 mi NE 12.7 mph - N/A   Clear
11:15 AM 86.2 °F - 51.1 °F 30% 30.21 in 10.0 mi NE 10.4 mph 18.4 mph N/A   Clear
11:35 AM 87.3 °F - 49.8 °F 27% 30.21 in 10.0 mi NE 11.5 mph 20.7 mph N/A   Clear
11:55 AM 87.3 °F - 50.9 °F 29% 30.20 in 10.0 mi NE 11.5 mph - N/A   Clear
12:15 PM 87.6 °F - 50.5 °F 28% 30.20 in 10.0 mi NE 9.2 mph 16.1 mph N/A   Clear
12:35 PM 88.0 °F - 51.1 °F 28% 30.19 in 10.0 mi NE 9.2 mph - N/A   Clear
12:55 PM 88.7 °F - 50.9 °F 27% 30.18 in 10.0 mi NE 8.1 mph 16.1 mph N/A   Clear
1:15 PM 88.9 °F - 49.6 °F 26% 30.18 in 10.0 mi NE 10.4 mph 17.3 mph N/A   Clear
1:35 PM 89.6 °F - 49.6 °F 25% 30.17 in 10.0 mi NE 10.4 mph 17.3 mph N/A   Clear
1:55 PM 89.6 °F - 49.6 °F 25% 30.17 in 10.0 mi NNE 15.0 mph 19.6 mph N/A   Clear
2:15 PM 89.8 °F - 49.1 °F 25% 30.16 in 10.0 mi NNE 10.4 mph 17.3 mph N/A   Clear
2:35 PM 90.7 °F - 48.6 °F 23% 30.16 in 10.0 mi NE 5.8 mph 16.1 mph N/A   Clear
2:55 PM 90.7 °F - 48.9 °F 24% 30.16 in 10.0 mi NNE 12.7 mph - N/A   Clear
3:15 PM 90.3 °F - 48.4 °F 24% 30.15 in 10.0 mi NE 11.5 mph 17.3 mph N/A   Clear
3:35 PM 90.9 °F - 48.7 °F 23% 30.15 in 10.0 mi North 11.5 mph 18.4 mph N/A   Clear
3:55 PM 90.5 °F - 48.7 °F 24% 30.14 in 10.0 mi NE 12.7 mph 17.3 mph N/A   Clear
4:15 PM 90.7 °F - 48.9 °F 24% 30.14 in 10.0 mi NNE 15.0 mph 19.6 mph N/A   Clear
4:35 PM 90.5 °F - 48.0 °F 23% 30.13 in 10.0 mi NNE 15.0 mph - N/A   Clear
4:55 PM 90.1 °F - 47.5 °F 23% 30.13 in 10.0 mi NE 16.1 mph 20.7 mph N/A   Clear
5:15 PM 89.8 °F - 47.7 °F 23% 30.13 in 10.0 mi NE 10.4 mph 13.8 mph N/A   Clear
5:35 PM 89.6 °F - 47.7 °F 23% 30.12 in 10.0 mi NNE 17.3 mph 20.7 mph N/A   Clear
5:55 PM 89.1 °F - 47.7 °F 24% 30.12 in 10.0 mi NNE 13.8 mph 21.9 mph N/A   Clear
6:15 PM 88.5 °F - 48.9 °F 25% 30.12 in 10.0 mi NE 15.0 mph 18.4 mph N/A   Clear
6:35 PM 87.3 °F - 49.1 °F 27% 30.12 in 10.0 mi NE 12.7 mph - N/A   Clear
6:55 PM 86.2 °F - 50.2 °F 29% 30.13 in 10.0 mi NE 11.5 mph - N/A   Clear
7:15 PM 85.1 °F - 50.4 °F 30% 30.13 in 10.0 mi NE 10.4 mph - N/A   Clear
7:35 PM 83.5 °F - 50.7 °F 32% 30.13 in 10.0 mi NE 8.1 mph - N/A   Clear
7:55 PM 81.5 °F - 51.4 °F 35% 30.13 in 10.0 mi NE 8.1 mph - N/A   Clear
8:15 PM 78.1 °F - 53.2 °F 42% 30.13 in 10.0 mi NE 6.9 mph - N/A   Clear
8:35 PM 76.1 °F - 54.0 °F 46% 30.12 in 10.0 mi NE 6.9 mph - N/A   Clear
8:55 PM 74.5 °F - 54.0 °F 49% 30.13 in 10.0 mi NE 5.8 mph - N/A   Clear
9:15 PM 73.0 °F - 54.1 °F 51% 30.14 in 10.0 mi NE 5.8 mph - N/A   Clear
9:35 PM 72.5 °F - 54.0 °F 52% 30.14 in 10.0 mi NE 6.9 mph - N/A   Clear
9:55 PM 72.0 °F - 53.6 °F 52% 30.15 in 10.0 mi NE 4.6 mph - N/A   Clear
10:15 PM 70.5 °F - 54.5 °F 57% 30.16 in 10.0 mi Calm Calm - N/A   Clear
10:35 PM 70.3 °F - 53.8 °F 56% 30.17 in 10.0 mi Calm Calm - N/A   Clear
10:55 PM 68.4 °F - 54.0 °F 60% 30.17 in 10.0 mi NNE 5.8 mph - N/A   Clear
11:15 PM 66.2 °F - 54.5 °F 66% 30.17 in 10.0 mi NE 6.9 mph - N/A   Clear
11:35 PM 67.8 °F - 53.6 °F 60% 30.17 in 10.0 mi ENE 3.5 mph - N/A   Clear
11:55 PM 67.5 °F - 53.4 °F 61% 30.18 in 10.0 mi NNE 3.5 mph - N/A   Clear